TimePST,TemperatureF,Dew PointF,Humidity,Sea Level PressureIn,VisibilityMPH,Wind Direction,Wind SpeedMPH,Gust SpeedMPH,PrecipitationIn,Events,Conditions,WindDirDegrees,DateUTC
12:53 AM,21.9,19.0,89,30.07,10.0,West,6.9,-,N/A,,Clear,270,2013-02-08 08:53:00
1:53 AM,17.1,15.1,92,30.09,10.0,SE,4.6,-,N/A,,Partly Cloudy,140,2013-02-08 09:53:00
2:53 AM,18.0,15.1,88,30.08,10.0,Calm,Calm,-,N/A,,Overcast,0,2013-02-08 10:53:00
3:53 AM,19.0,16.0,88,30.09,10.0,Calm,Calm,-,N/A,,Mostly Cloudy,0,2013-02-08 11:53:00
4:53 AM,19.9,17.1,89,30.09,10.0,NW,6.9,-,N/A,,Clear,320,2013-02-08 12:53:00
5:53 AM,16.0,12.9,88,30.09,10.0,Calm,Calm,-,N/A,,Clear,0,2013-02-08 13:53:00
6:53 AM,27.0,21.0,78,30.07,10.0,NW,10.4,-,N/A,,Scattered Clouds,310,2013-02-08 14:53:00
7:53 AM,28.9,24.1,82,30.07,10.0,WNW,13.8,-,N/A,,Clear,300,2013-02-08 15:53:00
8:53 AM,30.9,25.0,79,30.07,10.0,WNW,17.3,-,N/A,,Clear,300,2013-02-08 16:53:00
9:53 AM,32.0,25.0,75,30.08,10.0,WNW,18.4,-,N/A,,Clear,300,2013-02-08 17:53:00
10:53 AM,33.1,25.0,72,30.09,10.0,NW,19.6,-,N/A,,Clear,310,2013-02-08 18:53:00
11:53 AM,33.1,26.1,75,30.07,10.0,NW,18.4,-,N/A,,Clear,310,2013-02-08 19:53:00
12:53 PM,34.0,27.0,75,30.06,10.0,NW,18.4,-,N/A,,Clear,310,2013-02-08 20:53:00
1:53 PM,35.1,25.0,67,30.05,10.0,WNW,20.7,28.8,N/A,,Clear,300,2013-02-08 21:53:00
2:53 PM,35.1,25.0,67,30.05,10.0,WNW,24.2,29.9,N/A,,Clear,300,2013-02-08 22:53:00
3:53 PM,34.0,24.1,67,30.05,10.0,WNW,24.2,29.9,N/A,,Clear,300,2013-02-08 23:53:00
4:53 PM,32.0,23.0,69,30.05,10.0,WNW,26.5,35.7,N/A,,Clear,290,2013-02-09 00:53:00
5:53 PM,30.9,23.0,72,30.06,10.0,WNW,26.5,33.4,N/A,,Clear,300,2013-02-09 01:53:00
6:53 PM,30.9,21.9,69,30.05,10.0,WNW,24.2,-,N/A,,Clear,290,2013-02-09 02:53:00
7:53 PM,30.9,21.9,69,30.05,10.0,WNW,26.5,33.4,N/A,,Clear,290,2013-02-09 03:53:00
8:53 PM,30.0,21.9,72,30.06,10.0,WNW,20.7,-,N/A,,Clear,290,2013-02-09 04:53:00
9:53 PM,30.0,21.9,72,30.06,10.0,WNW,21.9,-,N/A,,Clear,290,2013-02-09 05:53:00
10:53 PM,28.0,21.0,75,30.07,10.0,NW,16.1,-,N/A,,Clear,310,2013-02-09 06:53:00
11:53 PM,28.9,21.9,75,30.07,10.0,WNW,24.2,32.2,N/A,,Partly Cloudy,300,2013-02-09 07:53:00